This is the latest recevied weather packets stored in our database for station/object MIDVIL-WX. If no packets are shown the sender has not sent any weather packets the latest 10 day(s).
| Time | Temp. | Humidity | Pressure | Rain* | Wind** | Luminosity | Snow |
|---|---|---|---|---|---|---|---|
| 1778025656 | 10.56° C | 37% | 983.6 hPa | 0 mm | - | - | - |
| 1778024726 | 10.56° C | 35% | 983.4 hPa | 0 mm | - | - | - |
| 1778023843 | 11.11° C | 34% | 983.3 hPa | 0 mm | - | - | - |
| 1778022926 | 11.11° C | 34% | 983.3 hPa | 0 mm | - | - | - |
| 1778022051 | 11.11° C | 34% | 983.3 hPa | 0 mm | - | - | - |
| 1778021126 | 11.11° C | 35% | 983.3 hPa | 0 mm | - | - | - |
| 1778020245 | 11.67° C | 35% | 983.6 hPa | 0 mm | - | - | - |
| 1778019326 | 11.67° C | 35% | 983.6 hPa | 0 mm | - | - | - |
| 1778018455 | 11.67° C | 35% | 983.6 hPa | 0 mm | - | - | - |
| 1778017525 | 12.22° C | 37% | 983.3 hPa | 0 mm | - | - | - |
| 1778016645 | 11.67° C | 36% | 983 hPa | 0 mm | - | - | - |
| 1778015725 | 12.22° C | 36% | 983 hPa | 0 mm | - | - | - |
| 1778014854 | 12.22° C | 36% | 983 hPa | 0 mm | - | - | - |
| 1778013925 | 12.22° C | 38% | 983.4 hPa | 0 mm | - | - | - |
| 1778013046 | 12.22° C | 36% | 982.5 hPa | 0 mm | - | - | - |
| 1778012126 | 12.22° C | 36% | 982.5 hPa | 0 mm | - | - | - |
| 1778011253 | 12.22° C | 36% | 982.5 hPa | 0 mm | - | - | - |
| 1778010325 | 12.22° C | 34% | 982.4 hPa | 0 mm | - | - | - |
| 1778009442 | 12.78° C | 34% | 982.4 hPa | 0 mm | - | - | - |
| 1778008528 | 12.78° C | 34% | 982.4 hPa | 0 mm | - | - | - |
| 1778007652 | 12.78° C | 34% | 982.4 hPa | 0 mm | - | - | - |
| 1778006728 | 12.78° C | 36% | 983 hPa | 0 mm | - | - | - |
| 1778005850 | 12.78° C | 37% | 982.3 hPa | 0 mm | - | - | - |
| 1778004928 | 12.78° C | 37% | 982.3 hPa | 0 mm | - | - | - |
| 1778004057 | 13.33° C | 37% | 982.3 hPa | 0 mm | - | - | - |
* Rain latest hour (hover to see other rain measurements)
** Current wind speed in m/s (hover to see current wind gust speed)